Weather History for KPEX - March, 2013

Change the Weather History Date:

Saturday, March 16, 2013

  Actual Average (KLJF) Record (KLJF)
Temperature  
Mean Temperature 12 °F -  
Max Temperature 21 °F 39 °F 77 °F (2012)
Min Temperature 3 °F 18 °F -5 °F (1951)
Degree Days  
Heating Degree Days 53    
Moisture  
Dew Point 8 °F    
Average Humidity 79    
Maximum Humidity 93    
Minimum Humidity 68    
Precipitation  
Precipitation 0.00 in - - ()
Sea Level Pressure  
Sea Level Pressure 30.11 in    
Wind  
Wind Speed 9 mph (NW)    
Max Wind Speed 13 mph    
Max Gust Speed 16 mph    
Visibility 10 miles    
Events Snow    
Averages and records for this station are not official NWS values.
T = Trace of Precipitation, MM = Missing Value Source: NWS Daily Summary

Daily Weather History Graph

Daily Weather History Graph

Search for Another Location

Airport or City:

Trip Planner

Search our weather history database for the weather conditions in past years. The results will help you decide how hot, cold, wet, or windy it might be!

Date:

Astronomy

Mar. 16, 2013 Rise Set
Actual Time 7:29 AM CDT 7:26 PM CDT
Civil Twilight 6:59 AM CDT 7:56 PM CDT
Nautical Twilight 6:25 AM CDT 8:30 PM CDT
Astronomical Twilight 5:50 AM CDT 9:05 PM CDT
Moon 9:44 AM CDT (3/16) No Moon Set
Length of Visible Light 12h 56m
Length of Day
11h 57m
Waxing Crescent, 23% of the Moon is Illuminated
Mar 16
Waxing Crescent
Mar 19
First Quarter
Mar 27
Full
Apr 2
Last Quarter
Apr 10
New

Hourly Weather History & Observations

Time (CDT) Temp. Windchill Dew Point Humidity Pressure Visibility Wind Dir Wind Speed Gust Speed Precip Events Conditions
12:12 AM 21.9 °F 12.5 °F 20.1 °F 93% 29.93 in 10.0 mi North 8.1 mph - N/A   Overcast
12:33 AM 21.9 °F 13.4 °F 19.9 °F 92% 29.94 in 5.0 mi North 6.9 mph - N/A   Overcast
12:53 AM 21.6 °F 13.0 °F 19.4 °F 91% 29.94 in 7.0 mi North 6.9 mph - N/A   Overcast
1:13 AM 21.6 °F 11.3 °F 19.2 °F 91% 29.95 in 10.0 mi North 9.2 mph - N/A   Overcast
1:33 AM 21.6 °F 12.1 °F 18.9 °F 89% 29.95 in 10.0 mi North 8.1 mph - N/A   Overcast
1:53 AM 21.2 °F 10.9 °F 18.3 °F 89% 29.95 in 10.0 mi NNE 9.2 mph - N/A   Overcast
2:12 AM 21.2 °F 11.7 °F 18.3 °F 89% 29.95 in 10.0 mi North 8.1 mph - N/A   Overcast
2:33 AM 21.2 °F 10.1 °F 18.1 °F 88% 29.96 in 10.0 mi NNE 10.4 mph - N/A   Overcast
2:53 AM 21.0 °F 9.9 °F 17.8 °F 87% 29.97 in 10.0 mi NNE 10.4 mph - N/A   Overcast
3:13 AM 20.8 °F 9.0 °F 17.4 °F 87% 29.97 in 10.0 mi NNE 11.5 mph - N/A   Overcast
3:33 AM 20.8 °F 11.2 °F 17.6 °F 87% 29.99 in 10.0 mi North 8.1 mph - N/A Snow Light Snow
3:53 AM 20.3 °F 9.8 °F 16.9 °F 87% 30.00 in 7.0 mi North 9.2 mph 16.1 mph N/A Snow Light Snow
4:13 AM 19.9 °F 9.3 °F 16.5 °F 87% 30.01 in 7.0 mi NNE 9.2 mph - N/A Snow Light Snow
4:33 AM 19.4 °F 9.5 °F 16.5 °F 89% 30.01 in 7.0 mi North 8.1 mph - N/A Snow Light Snow
4:53 AM 19.0 °F 8.2 °F 15.8 °F 87% 30.02 in 7.0 mi North 9.2 mph - N/A Snow Light Snow
5:13 AM 18.5 °F 10.4 °F 15.1 °F 86% 30.04 in 7.0 mi NNE 5.8 mph - N/A Snow Light Snow
5:33 AM 18.1 °F 8.9 °F 15.1 °F 88% 30.04 in 10.0 mi NNE 6.9 mph - N/A Snow Light Snow
5:53 AM 18.0 °F 7.7 °F 14.9 °F 88% 30.05 in 10.0 mi NNE 8.1 mph - N/A Snow Light Snow
6:13 AM 17.6 °F 7.3 °F 14.4 °F 87% 30.06 in 7.0 mi North 8.1 mph - N/A Snow Light Snow
6:33 AM 16.3 °F 4.9 °F 12.7 °F 86% 30.07 in 10.0 mi North 9.2 mph - N/A Snow Light Snow
6:53 AM 15.8 °F 5.1 °F 12.4 °F 86% 30.08 in 10.0 mi North 8.1 mph - N/A Snow Light Snow
7:13 AM 15.1 °F 4.2 °F 11.5 °F 86% 30.08 in 10.0 mi North 8.1 mph - N/A   Mostly Cloudy
7:33 AM 13.6 °F 3.5 °F 10.4 °F 87% 30.10 in 10.0 mi NNW 6.9 mph - N/A Snow Light Snow
7:53 AM 12.9 °F 2.6 °F 9.5 °F 86% 30.10 in 10.0 mi NNW 6.9 mph - N/A Snow Light Snow
8:13 AM 12.7 °F 2.4 °F 9.0 °F 85% 30.11 in 7.0 mi NNW 6.9 mph - N/A Snow Light Snow
8:33 AM 12.9 °F 2.6 °F 8.6 °F 83% 30.12 in 10.0 mi NNW 6.9 mph - N/A Snow Light Snow
8:53 AM 12.2 °F 2.9 °F 8.4 °F 85% 30.13 in 10.0 mi NNW 5.8 mph - N/A Snow Light Snow
9:13 AM 12.9 °F 3.8 °F 8.1 °F 81% 30.13 in 10.0 mi NW 5.8 mph - N/A   Scattered Clouds
9:33 AM 12.6 °F 2.2 °F 7.7 °F 81% 30.14 in 10.0 mi NW 6.9 mph - N/A   Clear
9:53 AM 12.2 °F 0.7 °F 7.0 °F 80% 30.14 in 10.0 mi NW 8.1 mph - N/A   Clear
10:13 AM 11.8 °F 0.3 °F 6.4 °F 79% 30.15 in 10.0 mi WNW 8.1 mph - N/A   Clear
10:33 AM 11.7 °F 1.1 °F 6.3 °F 79% 30.16 in 10.0 mi NW 6.9 mph - N/A   Clear
10:53 AM 11.3 °F 0.7 °F 5.9 °F 79% 30.16 in 10.0 mi West 6.9 mph - N/A   Clear
11:13 AM 11.3 °F -0.4 °F 5.9 °F 79% 30.16 in 10.0 mi NW 8.1 mph - N/A   Clear
11:33 AM 11.3 °F -0.4 °F 5.7 °F 78% 30.16 in 10.0 mi NW 8.1 mph - N/A   Clear
11:53 AM 12.0 °F -0.4 °F 6.1 °F 77% 30.16 in 10.0 mi WNW 9.2 mph - N/A   Clear
12:13 PM 12.9 °F -0.2 °F 6.4 °F 75% 30.17 in 10.0 mi WNW 10.4 mph - N/A   Clear
12:33 PM 13.1 °F 0.9 °F 6.1 °F 74% 30.17 in 10.0 mi WNW 9.2 mph - N/A   Clear
12:53 PM 13.6 °F 0.7 °F 6.6 °F 74% 30.17 in 3.0 mi WNW 10.4 mph - N/A Snow Light Snow
1:12 PM 14.0 °F 1.2 °F 6.4 °F 72% 30.17 in 10.0 mi WNW 10.4 mph - N/A   Clear
1:53 PM 15.3 °F 2.0 °F 6.8 °F 69% 30.18 in 10.0 mi WNW 11.5 mph - N/A   Clear
2:13 PM 15.3 °F 1.4 °F 6.3 °F 68% 30.16 in 10.0 mi NW 12.7 mph - N/A   Clear
2:33 PM 15.4 °F 2.3 °F 6.6 °F 68% 30.16 in 10.0 mi NW 11.5 mph - N/A   Clear
2:53 PM 15.6 °F 1.8 °F 7.0 °F 69% 30.16 in 10.0 mi NW 12.7 mph - N/A   Clear
3:13 PM 15.4 °F 2.3 °F 6.6 °F 68% 30.15 in 10.0 mi NW 11.5 mph - N/A   Clear
3:33 PM 15.4 °F 3.0 °F 6.4 °F 68% 30.14 in 10.0 mi NW 10.4 mph - N/A   Clear
3:53 PM 14.9 °F 0.9 °F 6.3 °F 69% 30.14 in 10.0 mi WNW 12.7 mph - N/A   Clear
4:13 PM 14.9 °F 2.3 °F 6.6 °F 70% 30.14 in 10.0 mi WNW 10.4 mph - N/A   Clear
4:33 PM 14.7 °F 2.1 °F 6.1 °F 69% 30.14 in 10.0 mi WNW 10.4 mph - N/A   Clear
5:13 PM 14.5 °F 1.1 °F 5.9 °F 69% 30.13 in 10.0 mi NW 11.5 mph - N/A   Clear
5:33 PM 14.5 °F 1.1 °F 6.1 °F 69% 30.13 in 10.0 mi NW 11.5 mph - N/A   Clear
5:53 PM 14.0 °F 2.0 °F 5.9 °F 70% 30.14 in 10.0 mi WNW 9.2 mph - N/A   Clear
6:13 PM 13.6 °F 2.5 °F 5.5 °F 70% 30.14 in 10.0 mi WNW 8.1 mph - N/A   Clear
6:33 PM 13.1 °F -0.7 °F 4.8 °F 70% 30.15 in 10.0 mi WNW 11.5 mph - N/A   Clear
6:53 PM 12.2 °F -0.2 °F 4.3 °F 71% 30.16 in 10.0 mi WNW 9.2 mph - N/A   Clear
7:13 PM 11.3 °F -0.4 °F 3.9 °F 72% 30.17 in 10.0 mi WNW 8.1 mph - N/A   Clear
7:33 PM 10.0 °F -4.5 °F 3.0 °F 73% 30.18 in 10.0 mi WNW 11.5 mph - N/A   Clear
7:53 PM 9.1 °F -4.9 °F 2.3 °F 74% 30.19 in 10.0 mi WNW 10.4 mph - N/A   Clear
8:13 PM 8.2 °F -6.8 °F 1.9 °F 76% 30.20 in 10.0 mi West 11.5 mph - N/A   Clear
8:33 PM 7.7 °F -6.6 °F 1.2 °F 75% 30.21 in 10.0 mi West 10.4 mph - N/A   Clear
8:52 PM 6.8 °F -7.8 °F 0.5 °F 75% 30.21 in 10.0 mi WNW 10.4 mph - N/A   Clear
9:13 PM 6.1 °F -6.8 °F -0.0 °F 76% 30.21 in 10.0 mi West 8.1 mph - N/A   Clear
9:33 PM 5.5 °F -8.4 °F -0.4 °F 77% 30.22 in 10.0 mi WNW 9.2 mph - N/A   Clear
9:52 PM 5.4 °F -9.6 °F -0.6 °F 76% 30.22 in 10.0 mi WNW 10.4 mph - N/A   Clear
10:13 PM 4.6 °F -7.4 °F -1.3 °F 76% 30.22 in 10.0 mi NW 6.9 mph - N/A   Clear
10:33 PM 4.1 °F -8.0 °F -1.7 °F 77% 30.23 in 10.0 mi NW 6.9 mph - N/A   Clear
10:52 PM 3.9 °F -5.3 °F -2.2 °F 76% 30.23 in 10.0 mi WNW 4.6 mph - N/A   Clear
11:13 PM 3.4 °F -5.9 °F -2.6 °F 76% 30.24 in 10.0 mi WNW 4.6 mph - N/A   Clear
11:33 PM 3.7 °F -3.6 °F -2.6 °F 75% 30.24 in 10.0 mi WNW 3.5 mph - N/A   Clear
11:52 PM 3.2 °F -6.2 °F -3.1 °F 75% 30.25 in 10.0 mi WNW 4.6 mph - N/A   Clear